This demonstration page uses our WeatherBlox Daily Observations layout. Learn more.

Left ArrowRight Arrow

Hourly Observations for July 2, 2019

Temp ( °F °C ) Dew Point ( °F °C ) Humidity (%) Winds ( mph kmh ) Pressure ( in mb ) Visibility ( mi km ) Precip ( " mm )
12:53 am 00:53 Partly Cloudy 78 25.6 72 22.2 82 82 WSW 3 6 29.97 1015 10 16 N/A
1:00 am 01:00 Mostly Cloudy with Nearby Thunderstorms 78 25.6 72 22.2 82 82 WSW 3 6 29.96 1015 10 16 N/A
1:20 am 01:20 Cloudy 79 26.1 73 22.8 82 82 VRB 3 6 29.96 1015 10 16 N/A
1:53 am 01:53 Clear 77 25 73 22.8 88 88 W 3 6 29.96 1015 10 16 N/A
2:53 am 02:53 Clear 74 23.3 73 22.8 97 97 N N/A 29.96 1015 10 16 N/A
3:53 am 03:53 Clear 76 24.4 73 22.8 91 91 W 5 7 29.95 1014 10 16 N/A
4:53 am 04:53 Mostly Clear 75 23.9 73 22.8 94 94 W 5 7 29.96 1014 10 16 N/A
5:53 am 05:53 Mostly Clear 75 23.9 73 22.8 94 94 W 3 6 29.96 1015 10 16 N/A
6:53 am 06:53 Sunny 75 23.9 72 22.2 90 90 WSW 3 6 29.97 1015 10 16 N/A
7:53 am 07:53 Sunny 78 25.6 73 22.8 85 85 W 5 7 29.98 1015 10 16 N/A
8:53 am 08:53 Sunny 81 27.2 73 22.8 77 77 WSW 5 7 29.99 1016 10 16 N/A
9:53 am 09:53 Sunny 84 28.9 72 22.2 67 67 NW 10 17 29.99 1016 10 16 N/A
10:53 am 10:53 Sunny 86 30 74 23.3 67 67 VRB 6 9 29.98 1015 10 16 N/A
11:53 am 11:53 Mostly Sunny 89 31.7 73 22.8 59 59 W 8 13 29.98 1015 10 16 N/A
12:53 pm 12:53 Mostly Sunny 88 31.1 72 22.2 59 59 W 8 13 29.97 1015 10 16 N/A
2:53 pm 14:53 Mostly Sunny 91 32.8 73 22.8 56 56 WSW 8 13 29.92 1013 10 16 N/A
3:53 pm 15:53 Sunny 88 31.1 66 18.9 48 48 WSW 10 17 29.91 1013 10 16 N/A
4:27 pm 16:27 Mostly Cloudy with Nearby Thunderstorms 84 28.9 63 17.2 49 49 NW 10 17 29.92 1013 10 16 N/A
4:53 pm 16:53 Sunny 86 30 64 17.8 48 48 NW 6 9 29.91 1013 10 16 N/A
5:53 pm 17:53 Sunny 88 31.1 71 21.7 57 57 N N/A 29.90 1013 10 16 N/A
6:53 pm 18:53 Sunny 86 30 70 21.1 59 59 VRB 3 6 29.88 1012 10 16 N/A
7:53 pm 19:53 Sunny 83 28.3 69 20.6 63 63 VRB 5 7 29.88 1012 10 16 N/A
8:53 pm 20:53 Partly Cloudy 81 27.2 69 20.6 67 67 SW 5 7 29.89 1012 10 16 N/A
9:53 pm 21:53 Clear 79 26.1 71 21.7 77 77 WNW 5 7 29.91 1013 10 16 N/A
10:53 pm 22:53 Clear 78 25.6 72 22.2 82 82 S 3 6 29.91 1013 10 16 N/A
11:53 pm 23:53 Clear 76 24.4 71 21.7 85 85 N N/A 29.92 1013 10 16 N/A

Powered by AerisWeather